EHI
39 39 37 32 26 24 24 23 22 21 17 13 12 11 14 17 16 13 8 6 7 9 10 10 9 9 9 10 9 6 6 5 3 4 7 13 18 17 14 13 11 6 3
40 38 35 31 26 23 22 21 21 20 17 14 12 11 12 13 12 10 7 6 7 8 9 10 9 8 8 9 8 6 5 5 4 5 7 12 15 16 14 12 9 5 3
39 36 32 29 25 22 21 20 21 20 18 15 14 12 11 10 8 7 7 7 7 7 8 9 8 8 9 9 7 5 5 5 5 5 6 8 11 13 14 11 8 5 5
34 32 29 27 25 24 23 23 23 21 18 17 16 14 12 10 7 6 7 8 8 7 7 7 7 8 9 8 6 4 5 4 4 5 5 6 8 11 13 12 8 7 7
28 26 25 26 26 25 25 25 24 21 18 18 17 15 13 9 6 6 7 8 8 8 7 7 6 6 6 5 3 2 3 4 4 5 6 5 7 9 11 10 8 7 7
24 22 22 24 24 23 23 23 22 20 19 18 17 15 12 8 5 4 7 8 8 8 9 8 5 3 3 3 1 1 2 3 5 6 6 7 7 8 8 7 5 5 5
21 20 20 21 20 18 17 18 18 18 18 17 16 14 10 7 4 3 5 7 8 8 10 9 6 3 2 3 2 1 1 2 3 5 6 7 8 9 8 7 5 5 4
20 20 18 17 17 15 14 14 14 13 14 15 14 11 8 6 3 2 3 5 7 7 8 9 8 6 3 3 4 3 2 2 2 3 4 5 7 8 9 9 8 6 5
19 19 17 15 14 15 15 14 13 10 9 11 11 10 8 5 2 1 2 5 6 6 7 7 6 6 5 3 4 5 5 4 4 3 3 3 4 4 5 7 8 7 5
16 17 17 14 13 15 16 16 14 12 10 10 11 11 10 8 3 1 1 4 6 6 6 4 2 2 3 2 3 5 6 5 6 6 4 4 4 4 3 4 7 7 5
14 16 16 13 12 13 15 16 14 14 14 13 13 12 12 10 6 2 1 3 5 5 3 2 1 0 1 1 2 4 4 4 6 7 6 4 5 6 5 5 7 7 5
16 16 15 13 11 11 13 13 12 13 15 15 14 12 10 9 6 2 0 1 2 2 1 1 1 0 0 0 0 1 1 2 4 6 6 5 6 7 7 9 10 8 6
18 17 15 14 13 12 12 11 10 11 12 13 12 9 7 7 5 2 0 0 0 0 0 0 0 0 0 0 0 0 0 1 4 5 5 6 6 6 8 10 12 11 8
18 16 13 13 13 13 12 9 8 9 10 10 10 8 6 6 5 2 1 1 0 0 0 0 0 1 1 1 1 1 2 3 4 5 5 6 6 6 7 9 11 11 9
17 15 12 11 11 11 9 7 6 7 7 7 7 6 5 4 3 1 1 1 0 0 0 0 1 2 2 2 3 4 4 4 4 4 4 5 6 5 5 5 7 7 6
16 14 12 10 9 8 7 5 4 3 4 3 3 2 2 1 0 0 1 1 0 0 0 0 1 3 3 3 3 4 4 3 3 3 3 4 4 4 3 2 2 2 2
15 14 11 9 8 7 7 6 4 2 1 0 0 0 0 0 0 0 0 0 0 0 1 1 2 3 3 3 3 3 3 3 3 3 3 3 3 2 1 0 0 0 0
13 12 10 8 6 7 7 6 5 4 2 2 1 0 0 0 0 0 0 0 1 1 2 2 2 2 3 3 3 3 3 3 3 3 3 3 2 1 0 0 0 0 0
9 8 7 6 6 6 6 6 6 5 4 4 3 1 0 0 0 0 0 0 1 2 3 2 1 1 2 3 3 3 3 3 3 3 3 2 1 0 0 0 0 0 0
5 4 4 4 5 6 6 6 6 6 6 5 4 3 1 1 1 1 1 1 1 3 3 2 1 1 2 3 3 3 3 3 3 3 2 1 0 0 0 0 0 0 0
3 3 3 4 5 5 6 6 6 6 6 6 6 4 2 2 3 4 3 1 1 2 3 3 3 3 3 3 3 3 3 3 2 1 1 0 0 0 0 0 0 0 0
3 3 3 4 4 5 5 5 4 4 4 6 6 3 1 2 5 5 4 2 1 1 2 3 3 3 3 3 3 3 3 2 1 0 0 0 0 0 0 0 0 0 0
4 3 3 4 4 5 5 5 4 4 4 4 4 3 2 3 6 6 4 2 1 1 1 2 3 3 3 3 3 2 1 1 0 0 0 0 0 0 0 0 0 0 0
5 4 3 3 3 4 5 5 5 4 4 3 4 4 4 5 5 5 3 2 2 2 2 2 3 3 2 2 2 1 0 0 0 0 0 0 0 0 0 0 0 0 0
5 4 3 3 3 3 4 4 4 4 3 3 4 5 5 4 3 2 2 1 1 1 1 2 2 1 1 1 1 0 0 0 0 0 0 0 0 0 0 0 0 0 0
4 4 3 3 3 3 3 3 3 3 3 3 4 6 6 4 2 1 1 0 0 0 0 1 1 0 0 0 0 0 0 0 0 0 0 0 0 0 0 0 0 0 0
Wind_Speed
4 2 2 3 2 2 1 2 2 2 2 2 2 1 1 1 1 1 1 1 1 2 2 2 2 3 3 3 3 2 2 1 2 3 2 2 1 1 0 1 2 3 4
5 3 3 3 2 2 1 1 1 1 1 1 1 1 1 1 1 1 2 2 2 2 2 2 3 2 2 3 3 3 2 2 2 3 2 2 2 1 1 2 3 3 3
5 4 3 2 2 2 1 1 1 1 0 0 0 0 1 1 1 1 2 2 2 2 2 2 2 2 3 3 3 3 3 3 2 2 3 2 2 2 1 2 4 3 4
4 4 3 2 1 1 1 0 1 1 0 0 1 1 1 1 1 2 2 2 2 2 2 3 2 2 2 3 3 3 3 3 2 2 3 2 2 2 1 2 3 2 3
3 3 2 2 1 1 1 1 1 0 0 1 1 1 1 1 2 2 3 3 2 3 3 3 3 2 3 2 3 2 2 2 2 2 3 3 2 2 2 2 3 3 3
2 3 2 2 2 2 1 1 1 1 1 1 1 1 2 2 3 3 2 3 3 3 3 3 3 1 2 2 3 3 2 2 3 3 3 3 3 3 3 3 3 3 4
2 2 2 2 2 1 1 2 2 2 2 2 2 1 1 2 3 3 3 2 3 2 2 3 4 4 3 2 2 3 3 4 5 4 4 4 4 4 3 4 3 4 4
2 2 2 1 1 1 1 1 1 1 1 1 1 2 1 2 3 3 3 2 2 2 2 2 1 2 4 3 3 3 3 4 5 4 4 5 4 3 3 4 5 5 4
2 2 1 1 1 0 1 1 1 1 1 1 1 1 2 2 3 3 3 2 2 2 2 2 2 2 4 4 3 4 4 4 5 5 6 6 6 6 4 3 4 4 5
1 1 1 1 1 0 0 0 1 1 1 1 1 1 1 2 3 3 3 2 2 2 1 1 3 2 4 4 3 3 5 5 5 5 5 6 5 6 6 4 4 4 4
2 1 1 1 1 1 1 0 0 1 1 1 1 1 0 0 2 3 3 2 3 2 2 1 2 2 3 4 5 4 6 6 5 5 4 4 3 3 3 4 4 3 4
2 2 1 2 2 1 1 1 1 1 1 1 1 1 0 0 1 2 2 2 3 3 2 2 2 2 4 5 5 6 8 7 4 4 3 3 2 2 2 2 3 4 4
2 2 2 1 1 1 2 2 2 1 1 1 1 1 1 1 1 2 3 4 4 3 3 4 5 6 7 6 6 8 6 4 4 3 3 3 2 2 2 2 3 3 4
2 1 2 2 2 2 1 1 1 1 1 1 1 1 0 1 2 2 2 3 3 3 3 5 6 7 7 6 5 4 3 3 3 3 3 3 2 2 2 2 2 2 3
2 2 2 2 1 1 1 0 0 0 0 0 1 1 1 2 2 3 3 3 4 4 4 4 3 3 3 3 3 3 2 2 2 3 3 3 3 2 2 2 2 3 2
2 2 2 2 2 2 1 1 3 2 3 2 0 1 1 0 2 3 4 5 6 5 4 4 3 3 3 3 3 3 3 3 3 3 3 3 3 2 2 2 2 3 3
2 2 2 1 1 1 1 1 1 1 1 1 0 0 1 2 3 3 4 6 7 4 2 3 3 3 3 4 3 3 3 3 3 3 3 3 3 2 2 2 2 3 3
3 2 2 1 1 1 1 1 1 1 1 0 2 3 3 3 3 4 4 4 4 2 2 3 3 3 3 3 3 3 3 3 3 3 3 3 3 2 3 3 3 3 3
2 1 1 1 2 1 1 1 1 1 1 1 0 1 3 3 3 4 3 3 4 4 3 3 3 4 3 3 3 3 3 3 3 3 3 3 3 3 3 3 3 3 3
1 2 2 2 2 2 1 1 1 1 1 1 1 0 1 1 2 2 2 2 3 4 3 4 3 3 3 3 3 3 3 3 4 4 4 3 3 2 3 3 3 3 2
2 2 2 2 2 2 1 2 1 2 1 1 0 1 2 2 2 1 1 1 2 3 3 3 3 3 3 3 4 4 5 4 4 4 4 4 3 2 2 2 3 2 2
2 2 2 3 2 2 2 2 2 2 2 1 0 1 4 3 2 1 1 1 1 1 2 3 3 3 3 4 4 5 5 5 5 4 5 4 4 3 2 3 3 3 2
3 3 2 2 2 2 3 3 2 2 2 2 2 1 2 2 2 1 1 1 1 1 1 2 3 3 3 3 3 4 5 5 5 6 5 5 5 4 3 3 3 3 3
4 3 3 3 3 3 3 3 2 2 2 2 1 1 1 1 1 1 1 1 1 1 1 1 2 4 5 4 4 4 4 5 6 5 6 6 6 5 4 3 3 3 3
4 4 3 3 2 2 2 3 3 2 2 2 1 1 1 1 1 1 1 1 1 1 2 2 2 3 4 5 5 4 4 4 4 5 5 4 5 6 5 4 3 3 3
4 4 3 3 2 3 3 2 2 2 2 2 1 1 1 1 0 0 1 1 1 1 2 2 3 4 5 4 4 4 3 4 4 5 5 4 5 5 5 4 5 4 4
Wind_Direction
131 132 131 138 138 129 106 73 56 43 36 27 4 3 21 6 356 351 317 313 301 303 301 305 299 300 314 320 319 317 311 311 281 296 315 337 345 309 204 247 238 208 207
131 131 124 123 119 115 104 93 74 59 66 59 17 358 354 4 4 348 322 329 321 310 305 311 305 303 306 299 303 296 291 286 272 279 294 305 299 282 228 240 263 253 230
124 126 121 116 119 126 118 93 77 46 57 60 101 40 335 338 332 324 316 318 317 312 317 310 297 304 298 293 284 285 288 291 280 277 284 291 290 287 272 274 278 286 279
116 118 114 116 112 108 104 115 90 44 14 358 354 337 322 324 323 335 330 308 304 311 317 306 296 290 285 290 292 282 286 296 293 285 284 288 293 300 288 284 290 283 282
111 115 108 102 86 75 59 50 48 337 343 348 315 316 307 300 333 350 320 308 317 318 316 309 303 305 312 297 301 312 304 299 301 296 291 295 294 305 299 285 281 282 274
98 93 90 84 75 64 51 42 26 18 6 347 333 330 323 330 9 13 340 320 319 317 318 317 309 308 304 272 275 286 292 271 274 280 289 290 289 284 288 284 290 295 290
98 82 80 79 76 62 28 33 29 24 13 349 344 349 360 348 357 350 332 310 307 307 306 309 312 333 350 330 291 274 268 260 247 256 272 277 278 280 284 286 284 282 281
126 116 93 88 82 77 72 37 7 1 326 323 338 347 349 349 352 327 322 297 291 289 288 296 314 329 329 332 303 291 270 268 259 248 252 262 270 276 272 272 275 277 274
134 130 114 106 99 93 76 16 350 336 322 311 331 339 357 358 356 347 336 299 292 304 322 355 346 350 350 337 316 301 295 290 282 270 258 258 263 273 281 289 278 272 275
128 123 124 155 146 164 140 250 298 297 295 292 337 348 20 8 1 6 341 298 307 317 333 9 13 13 351 330 301 297 294 293 300 294 278 268 257 252 250 246 262 269 274
132 132 153 191 206 203 178 189 261 278 278 294 302 294 325 2 360 1 347 321 309 308 317 331 3 9 344 313 300 287 280 288 286 280 268 259 249 240 236 233 238 251 264
150 151 178 192 223 208 191 225 228 246 260 257 259 260 267 92 11 336 326 312 317 329 330 333 354 346 321 306 296 290 295 297 284 279 277 274 271 265 258 249 242 242 243
170 178 192 195 189 202 218 228 229 230 251 262 305 335 340 14 26 353 336 330 326 319 318 321 314 301 296 287 275 286 293 285 282 282 284 284 276 272 269 264 257 247 249
186 203 207 197 195 199 222 226 239 264 295 339 346 329 0 44 23 6 345 334 331 320 317 309 297 286 284 284 287 285 273 280 290 292 295 290 292 295 289 284 280 274 265
194 207 221 204 195 196 192 312 217 250 145 240 326 334 357 5 344 329 320 320 325 335 319 294 286 284 293 298 297 292 289 293 301 301 300 300 295 297 308 318 313 312 291
195 209 231 217 192 209 161 87 44 83 119 114 90 339 28 27 311 325 332 324 314 314 306 291 300 305 314 317 316 315 317 322 316 310 309 311 310 303 305 319 320 310 302
217 221 239 251 231 225 185 167 150 103 115 126 136 155 228 269 309 322 321 321 312 314 303 306 318 322 318 317 323 329 329 327 326 324 323 321 316 311 311 311 303 302 304
233 216 229 247 254 249 234 215 210 204 186 234 213 220 227 260 291 304 320 331 315 305 297 311 317 320 322 326 333 333 330 328 329 325 328 329 326 320 318 310 308 313 312
249 240 245 270 269 253 250 250 235 210 222 248 220 206 236 253 281 296 312 301 314 328 332 329 327 330 333 334 337 335 334 330 335 328 327 328 327 326 321 318 320 319 310
246 227 225 258 266 260 259 268 277 267 235 235 256 125 155 248 266 268 262 287 314 322 327 330 328 331 338 341 345 340 338 342 340 338 337 332 329 322 318 316 318 317 313
254 228 214 242 256 264 285 287 284 286 287 255 201 159 188 240 260 277 290 295 303 319 332 325 321 335 350 352 354 349 349 346 344 342 336 326 325 325 323 319 313 309 306
253 228 215 235 256 274 284 276 268 263 268 275 215 171 194 233 250 263 249 252 273 289 318 329 341 9 12 5 2 352 349 352 350 344 337 332 329 322 313 314 321 320 314
251 247 232 229 234 230 251 257 265 268 265 246 240 221 205 250 276 283 262 277 296 315 330 340 353 4 24 16 6 9 3 354 344 340 333 326 322 318 313 310 310 316 321
257 257 250 245 244 239 247 256 259 266 278 284 274 242 233 253 284 329 352 358 353 353 2 0 4 10 21 17 17 29 20 359 343 337 333 322 316 314 313 308 300 296 300
256 258 258 255 253 257 259 264 267 269 270 280 282 273 274 281 297 317 8 8 1 356 359 17 21 25 25 27 27 23 14 358 351 340 326 318 311 307 305 304 302 302 290
265 267 264 259 258 257 258 261 266 277 275 269 276 279 269 269 276 330 358 360 354 3 12 24 19 28 25 24 33 36 16 348 339 332 320 310 306 306 309 303 298 294 293